Regional Weather Roundup
Issued by NWS Kansas City/Pleasant Hill, MO

Home | Current Version | Previous Version | Graphics & Text | Print | Product List | Glossary Off
Versions: 1 2 3 4 5 6 7 8 9 10 11 12 13 14 15 16 17 18 19 20 21 22 23 24 25 26 27 28 29 30 31 32 33 34 35 36 37 38 39 40 41 42 43 44 45 46 47 48 49 50

000
ASUS43 KEAX 260110
RWREAX

WEATHER ROUNDUP FOR EASTERN KANSAS AND NORTHWEST MISSOURI
NATIONAL WEATHER SERVICE KANSAS CITY/PLEASANT HILL MO
800 PM CDT SUN JUN 25 2017

KSZ040-057-103>105-MOZ028-029-037-043-260200-
...KANSAS CITY METROPOLITAN AREA...

CITY           SKY/WX    TMP DP  RH WIND       PRES   REMARKS
K.C. INTL      PTCLDY    65  52  62 W8        30.23F
K.C. DOWNTOWN  PTCLDY    66  53  63 SW6       30.23F
LEES SUMMIT    CLOUDY    65  53  65 W5        30.25F
OLATHE - IXD   CLOUDY    61  56  83 N6        30.25F
OLATHE - OJC   CLOUDY    64  51  62 NW3       30.24F
LAWRENCE       CLOUDY    64  54  69 CALM      30.24F

$$

MOZ001>008-011>017-020>025-030>033-038>040-044>046-053-054-260200-
...NORTHERN AND CENTRAL MISSOURI...

CITY           SKY/WX    TMP DP  RH WIND       PRES   REMARKS
ST. JOSEPH     CLEAR     70  51  51 SW7       30.22S
MOSBY          CLEAR     68  50  52 W5        30.23F
WARRENSBURG    DRIZZLE   63  50  63 W8        30.24F
WHITEMAN AFB   CLOUDY    65  52  61 W7        30.22F
CLINTON        CLOUDY    68  55  64 NW6       30.24S
SEDALIA        CLOUDY    67  52  58 W9        30.23F
WARSAW         NOT AVBL
CHILLICOTHE      N/A     73  48  41 CALM      30.22F
KIRKSVILLE     CLEAR     69  47  45 W6        30.21F

$$

MOZ041-047>049-056>058-063>065-088>090-097-260200-
...EASTERN AND SOUTHERN MISSOURI...

CITY           SKY/WX    TMP DP  RH WIND       PRES   REMARKS
ST. LOUIS INTL MOCLDY    76  46  34 NW12      30.18R
SPIRIT OF STL  PTCLDY    74  48  39 NW10      30.17R
COLUMBIA       CLOUDY    72  51  47 NW7       30.21S
JEFFERSON CITY CLOUDY    74  51  44 W7        30.20S
ROLLA          CLOUDY    71  53  52 NW7       30.20F
OSAGE BEACH    CLOUDY    73  53  49 VRB5      30.22F
SPRINGFIELD    CLEAR     75  57  53 N9        30.22F
BRANSON        PTCLDY    77  57  50 N6        30.23S
JOPLIN         CLOUDY    75  59  57 N13       30.22S
WEST PLAINS    CLEAR     76  52  43 NW5       30.22S

$$

IAZ060-094-KSZ022-034>040-054-083-096-NEZ052-066-093-260200-
...KANSAS...SOUTHEAST NEBRASKA AND IOWA...

CITY           SKY/WX    TMP DP  RH WIND       PRES   REMARKS
TOPEKA         CLOUDY    64  55  72 SW5       30.24F
MANHATTAN      MOCLDY    67  57  70 CALM      30.24F
EMPORIA        CLOUDY    65  54  67 E7        30.24F
CHANUTE        CLOUDY    69  52  54 N10       30.24S
WICHITA        CLOUDY    68  61  78 E12       30.23S
OMAHA          PTCLDY    74  44  34 N5        30.21F
LINCOLN        CLEAR     74  45  35 N3        30.22F
FALLS CITY     CLEAR     71  52  50 SW5       30.21F
LAMONI         CLEAR     70  45  40 NW8       30.21F
DES MOINES     PTCLDY    72  41  32 W9        30.19S

$$




USA.gov is the U.S. government's official web portal to all federal, state and local government web resources and services.